Regional Weather Roundup
Issued by NWS

Home | Current Version | Previous Version | Graphics & Text | Print | Product List | Glossary On
Versions: 1 2 3 4 5 6 7 8 9 10 11 12 13 14 15 16 17 18 19 20 21 22 23 24 25 26 27
000
ASUS43 KDMX 250707
RWRIA

WEATHER ROUNDUP FOR IOWA
NATIONAL WEATHER SERVICE DES MOINES IA
200 AM CDT SAT OCT 25 2014

NOTE: "FAIR" INDICATES FEW OR NO CLOUDS BELOW 12,000 FEET WITH NO
SIGNIFICANT WEATHER AND/OR OBSTRUCTIONS TO VISIBILITY.

* - THESE STATIONS ARE NOT NWS STATIONS...THUS NOT UNDER NWS
QUALITY CONTROL.  THEY ALSO DO NOT REPORT WEATHER SUCH
AS PRECIPITATION OR FOG.

IAZ001>003-012>014-020>022-031>034-043>046-250800-
   NORTHWEST IOWA

CITY           SKY/WX    TMP DP  RH WIND       PRES   REMARKS
CARROLL *      CLEAR     52  46  82 W9        30.00F
CHEROKEE *     CLEAR     46  46 100 CALM      30.01S
DENISON *      CLEAR     46  46 100 CALM      30.00F
LE MARS *      CLEAR     45  43  93 CALM      30.02S
ORANGE CITY *  CLEAR     54  41  62 CALM      30.02S
SHELDON *      CLEAR     46  43  87 N5        30.02R
SIOUX CITY     CLEAR     45  42  89 CALM      30.01S
SPENCER        PTCLDY    47  41  80 N8        30.02R
STORM LAKE *   CLEAR     54  43  66 NW8       30.02S
$$

IAZ055>058-069>071-079>083-090>094-250800-
   SOUTHWEST IOWA

CITY           SKY/WX    TMP DP  RH WIND       PRES   REMARKS
AUDUBON *      CLEAR     45  39  81 CALM      30.03R
CLARINDA *     FOG       48  48 100 CALM      30.02R VSB 1/4
COUNCIL BLFS * CLEAR     55  54  94 N7        30.01R
CRESTON *      FOG       54  54 100 NW6       30.01S VSB 1/4
HARLAN  *      CLEAR     46  46 100 CALM      30.05S FOG
LAMONI         FOG       53  52  96 W3        29.99R VSB 1/4
RED OAK *      FOG       48  48 100 CALM      30.02R VSB 1/4
SHENANDOAH *   FOG       48  48 100 CALM      30.02S VSB 0
$$

IAZ047>049-059>061-072>074-084-250800-
   CENTRAL IOWA

CITY           SKY/WX    TMP DP  RH WIND       PRES   REMARKS
AMES           CLEAR     46  44  93 CALM      29.98R
ANKENY *       CLEAR     46  46 100 CALM      29.99R FOG
CHARITON *     FOG       54  54 100 W6        29.98S VSB 1/4
DES MOINES     FOG       53  51  93 NW3       29.99R VSB 1
GRINNELL*      FOG       52  52 100 NW5       29.99R VSB 1/4
KNOXVILLE *    FOG       52  52 100 W9        29.97R VSB 0
MARSHALLTOWN   FOG       49  49 100 CALM      29.96R VSB 1/4
PELLA *        FOG       54  54 100 W6        29.99R VSB 1/4
PERRY *          N/A     50  48  93 W8        30.00R
$$

IAZ004>006-015-016-023>025-035-036-250800-
   NORTH CENTRAL IOWA

CITY           SKY/WX    TMP DP  RH WIND       PRES   REMARKS
ALGONA *       CLEAR     54  45  71 NW9       30.01R
CLARION *      CLEAR     45  45 100 CALM      29.99R
ESTHERVILLE    PTCLDY    54  41  61 NW9       30.01R
FORT DODGE *   CLEAR     48  43  81 CALM      30.00R
MASON CITY     CLEAR     49  44  83 W12       29.99R
FOREST CITY *  CLEAR     52  45  76 W9        29.99R
IOWA FALLS *     N/A     50  48  93 W8        29.99R
$$

IAZ007>011-017>019-026>030-037>042-050>054-066-250800-
   NORTHEAST IOWA

CITY           SKY/WX    TMP DP  RH WIND       PRES   REMARKS
CEDAR RAPIDS   FOG       54  54 100 W7        29.95R VSB<1/4
CHARLES CITY * CLEAR     48  48 100 W6        29.96R FOG
CLINTON *        N/A     54  52  94 NW6       29.96S VSB<1/4
DECORAH *      CLOUDY    55  55 100 CALM      29.93R FOG
DUBUQUE        CLOUDY    59  58  96 W8        29.93F FOG
MONTICELLO *   FOG       59  59 100 W7        29.95R VSB 1/4
OELWEIN *      FOG       55  55 100 W5        29.96S VSB 0
WATERLOO       FOG       52  52 100 CALM      29.96R VSB<1/4
$$

IAZ064-065-067-068-078-250800-
   EAST CENTRAL IOWA

CITY           SKY/WX    TMP DP  RH WIND       PRES   REMARKS
DAVENPORT      FOG       52  51  97 W6        29.94F VSB 1/4
IOWA CITY      FOG       52  52 100 CALM      29.96S VSB 1/4
MT. PLEASANT * FOG       50  50 100 SW3       29.96S VSB 1/4
MUSCATINE *    FOG       48  48 100 CALM      29.94F VSB 0
QUAD CITIES    FOG       51  49  92 CALM      29.93F VSB<1/4
$$

IAZ062-063-075>077-085>089-095>099-250800-
   SOUTHEAST IOWA

CITY           SKY/WX    TMP DP  RH WIND       PRES   REMARKS
BURLINGTON     MOCLDY    55  55 100 NW5       29.96S FOG
FAIRFIELD *    CLOUDY    50  50 100 SW5       29.96F
FORT MADISON * FOG       55  55 100 W3        29.97S VSB 1/2
KEOKUK *       FOG       55  55 100 CALM      29.95F VSB 0
OSKALOOSA *    FOG       50  48  93 W3        29.97S VSB<1/4
CENTERVILLE *  FOG       50  50 100 SW6       29.99S VSB 1/2
OTTUMWA        FOG       53  52  96 SW5       29.95F VSB<1/4
WASHINGTON *   FOG       54  54 100 SW3       29.95F VSB 0
$$

ABBREVIATIONS USED IN REMARKS
   TC - TEMPERATURES IN CELSIUS
  WCI - WIND CHILL INDEX
   HX - HEAT INDEX
  VSB - VISIBILITY
$$




USA.gov is the U.S. government's official web portal to all federal, state and local government web resources and services.